^^
B2 Weather Station Historical Data
 
Daily Summary for June 18, 2018 Units:  English    Metric   Both
Daily Weekly Monthly Yearly Custom
  Current: High: Low: Average:
Temperature: 77.3 °F 79.4 °F 77.0 °F 78.4 °F
Dew Point: 73.5 °F 74.7 °F 73.2 °F 74 °F
Humidity: 88% 89% 83% 86%
Wind Speed: 7.0mph 11.5mph 0.0mph 5.8mph
Wind Gust: 0.4mph 6.3mph - -
WindSSW - - SSW
Pressure: 29.94 in 29.96 in 29.93 in -
Precipitation: 0.00 in      
Historical Graphs
 
 
Tabular Data for June 18, 2018
Time Temperature Dew Point Pressure Wind Wind Speed Wind Gust Humidity Rainfall Rate (Hourly) solar
00:04 79.2 °F 73.6 °F 29.95 in Calm     83% 0.00 in 0.00 W/m2
00:09 79.2 °F 73.9 °F 29.95 in Calm     84% 0.00 in 0.00 W/m2
00:14 79.2 °F 73.9 °F 29.96 in SSW 4.6 mph 0.3 mph 84% 0.00 in 0.00 W/m2
00:19 79.2 °F 73.9 °F 29.96 in Calm     84% 0.00 in 0.00 W/m2
00:24 79.1 °F 74.2 °F 29.95 in Calm     85% 0.00 in 0.00 W/m2
00:29 79.0 °F 74.1 °F 29.95 in SSW 5.8 mph 0.1 mph 85% 0.00 in 0.00 W/m2
00:34 78.9 °F 74.0 °F 29.95 in Calm     85% 0.00 in 0.00 W/m2
00:39 78.9 °F 74.0 °F 29.95 in SSW 1.2 mph   85% 0.00 in 0.00 W/m2
00:44 78.8 °F 73.9 °F 29.95 in SSW 3.5 mph 0.3 mph 85% 0.00 in 0.00 W/m2
00:49 78.8 °F 74.3 °F 29.95 in SSW 4.6 mph 0.3 mph 86% 0.00 in 0.00 W/m2
00:54 78.8 °F 74.3 °F 29.95 in SW 5.0 mph 0.8 mph 86% 0.00 in 0.00 W/m2
00:59 78.9 °F 74.4 °F 29.95 in SW 4.6 mph 1.1 mph 86% 0.00 in 0.00 W/m2
01:04 79.0 °F 74.5 °F 29.95 in SW 3.0 mph 0.5 mph 86% 0.00 in 0.00 W/m2
01:09 79.0 °F 74.5 °F 29.95 in SSW 1.2 mph   86% 0.00 in 0.00 W/m2
01:14 79.0 °F 74.5 °F 29.95 in SSW 3.5 mph 0.8 mph 86% 0.00 in 0.00 W/m2
01:19 79.0 °F 74.5 °F 29.95 in SW 5.0 mph 1.0 mph 86% 0.00 in 0.00 W/m2
01:24 79.0 °F 74.5 °F 29.95 in SW 5.0 mph 1.2 mph 86% 0.00 in 0.00 W/m2
01:29 79.0 °F 74.5 °F 29.95 in SSW 3.5 mph 0.7 mph 86% 0.00 in 0.00 W/m2
01:34 79.1 °F 74.5 °F 29.94 in South 6.9 mph 1.1 mph 86% 0.00 in 0.00 W/m2
01:39 79.2 °F 74.6 °F 29.94 in SSW 8.1 mph 3.5 mph 86% 0.00 in 0.00 W/m2
01:44 79.3 °F 74.7 °F 29.94 in SSW 9.2 mph 1.9 mph 86% 0.00 in 0.00 W/m2
01:44 79.3 °F 74.7 °F 29.94 in SW 9.2 mph 2.2 mph 86% 0.00 in 0.00 W/m2
01:59 79.4 °F 74.5 °F 29.94 in SW 11.5 mph 4.5 mph 85% 0.00 in 0.00 W/m2
02:04 79.4 °F 74.5 °F 29.94 in SSW 10.4 mph 3.5 mph 85% 0.00 in 0.00 W/m2
02:09 79.3 °F 74.4 °F 29.93 in South 8.1 mph 2.1 mph 85% 0.00 in 0.00 W/m2
02:14 79.3 °F 74.4 °F 29.94 in South 8.1 mph 2.2 mph 85% 0.00 in 0.00 W/m2
02:19 79.1 °F 74.5 °F 29.94 in SW 8.0 mph 6.3 mph 86% 0.00 in 0.00 W/m2
02:24 79.1 °F 74.5 °F 29.93 in SSE 10.4 mph 5.7 mph 86% 0.00 in 0.00 W/m2
02:29 79.0 °F 74.5 °F 29.93 in SSW 6.9 mph 0.2 mph 86% 0.00 in 0.00 W/m2
02:34 78.9 °F 74.4 °F 29.93 in South 10.4 mph 1.4 mph 86% 0.00 in 0.00 W/m2
02:39 78.8 °F 74.3 °F 29.93 in SSW 6.9 mph 2.9 mph 86% 0.00 in 0.00 W/m2
02:44 78.7 °F 74.2 °F 29.93 in SSW 7.0 mph 3.4 mph 86% 0.00 in 0.00 W/m2
02:49 78.6 °F 74.1 °F 29.93 in SSW 6.0 mph 2.6 mph 86% 0.00 in 0.00 W/m2
02:54 78.5 °F 74.3 °F 29.93 in SSW 11.0 mph 3.3 mph 87% 0.00 in 0.00 W/m2
02:59 78.5 °F 74.3 °F 29.93 in SSW 9.2 mph 1.6 mph 87% 0.00 in 0.00 W/m2
03:04 78.4 °F 74.2 °F 29.93 in South 6.9 mph 3.4 mph 87% 0.00 in 0.00 W/m2
03:09 78.5 °F 74.3 °F 29.93 in SW 6.9 mph 3.2 mph 87% 0.00 in 0.00 W/m2
03:14 78.6 °F 74.1 °F 29.93 in SSW 6.9 mph 4.2 mph 86% 0.00 in 0.00 W/m2
03:19 78.6 °F 74.1 °F 29.93 in SW 10.4 mph 4.2 mph 86% 0.00 in 0.00 W/m2
03:24 78.6 °F 74.1 °F 29.93 in SW 6.9 mph 2.3 mph 86% 0.00 in 0.00 W/m2
03:29 78.6 °F 74.1 °F 29.93 in WSW 6.9 mph 3.6 mph 86% 0.00 in 0.00 W/m2
03:34 78.5 °F 74.0 °F 29.93 in SSW 6.9 mph 0.9 mph 86% 0.00 in 0.00 W/m2
03:39 78.5 °F 74.0 °F 29.93 in SSW 6.9 mph 0.6 mph 86% 0.00 in 0.00 W/m2
03:44 78.5 °F 74.0 °F 29.93 in SSW 4.6 mph 1.4 mph 86% 0.00 in 0.00 W/m2
03:49 78.5 °F 74.0 °F 29.93 in SSW 4.6 mph 2.0 mph 86% 0.00 in 0.00 W/m2
03:54 78.5 °F 74.0 °F 29.93 in SSW 5.8 mph 1.6 mph 86% 0.00 in 0.00 W/m2
03:59 78.5 °F 74.0 °F 29.93 in SSW 3.5 mph 1.8 mph 86% 0.00 in 0.00 W/m2
04:04 78.4 °F 73.9 °F 29.93 in SW 3.5 mph 0.6 mph 86% 0.00 in 0.00 W/m2
04:09 78.4 °F 73.9 °F 29.93 in WSW 5.8 mph 1.2 mph 86% 0.00 in 0.00 W/m2
04:14 78.3 °F 73.8 °F 29.93 in SSW 5.0 mph 2.4 mph 86% 0.00 in 0.00 W/m2
04:19 78.2 °F 73.7 °F 29.93 in SW 6.9 mph 0.1 mph 86% 0.00 in 0.00 W/m2
04:24 78.0 °F 73.8 °F 29.93 in Calm   0.5 mph 87% 0.00 in 0.00 W/m2
04:27 77.9 °F 73.7 °F 29.93 in SSW 6.9 mph   87% 0.00 in 0.00 W/m2
04:34 77.7 °F 73.5 °F 29.93 in Calm   0.7 mph 87% 0.00 in 0.00 W/m2
04:39 77.5 °F 73.7 °F 29.94 in SW 3.5 mph 2.3 mph 88% 0.00 in 0.00 W/m2
04:44 77.5 °F 73.7 °F 29.94 in SW 6.9 mph   88% 0.00 in 0.00 W/m2
04:49 77.5 °F 73.7 °F 29.94 in SW 3.5 mph 2.0 mph 88% 0.00 in 0.00 W/m2
04:54 77.5 °F 73.7 °F 29.94 in SSW 8.1 mph 2.8 mph 88% 0.00 in 0.00 W/m2
04:57 77.5 °F 73.7 °F 29.94 in SW 8.1 mph 2.6 mph 88% 0.00 in 0.00 W/m2
05:04 77.4 °F 73.6 °F 29.94 in SW 9.0 mph 1.9 mph 88% 0.00 in 0.00 W/m2
05:09 77.4 °F 73.6 °F 29.94 in SSW 5.8 mph 2.9 mph 88% 0.00 in 0.00 W/m2
05:14 77.3 °F 73.5 °F 29.94 in SW 5.8 mph 1.8 mph 88% 0.00 in 0.00 W/m2
05:19 77.3 °F 73.5 °F 29.94 in SSW 6.9 mph 1.6 mph 88% 0.00 in 0.00 W/m2
05:24 77.2 °F 73.4 °F 29.94 in SSW 5.8 mph 0.8 mph 88% 0.00 in 0.00 W/m2
05:29 77.1 °F 73.3 °F 29.94 in SSW 5.8 mph 2.4 mph 88% 0.00 in 5.00 W/m2
05:34 77.0 °F 73.2 °F 29.94 in SW 6.9 mph 2.9 mph 88% 0.00 in 7.00 W/m2
05:39 77.0 °F 73.5 °F 29.94 in SSW 6.9 mph 0.8 mph 89% 0.00 in 11.00 W/m2
05:44 77.0 °F 73.2 °F 29.94 in South 5.8 mph 1.1 mph 88% 0.00 in 12.00 W/m2
05:49 77.1 °F 73.3 °F 29.94 in SSW 8.0 mph 1.3 mph 88% 0.00 in 18.00 W/m2
05:52 77.1 °F 73.3 °F 29.94 in SSW 8.1 mph 2.1 mph 88% 0.00 in 19.00 W/m2
05:59 77.2 °F 73.4 °F 29.94 in SSW 4.6 mph 0.3 mph 88% 0.00 in 28.00 W/m2
06:04 77.3 °F 73.5 °F 29.94 in SSW 7.0 mph 0.4 mph 88% 0.00 in 33.00 W/m2
Bourbonnais, Illinois, USA
Compliments of Weather Underground - 2 mb